Location: Unspecified
(0.0000°N, 0.0000°E)
Time: 11:20:16
(UTC+00:00)

Vanguard 2 Rocket - Pass Details

Date: 24 November 2019
Orbit: 554 x 3326 km, 32.9° (Epoch: 13 December)

Event Time Altitude Azimuth Distance (km) Brightness Sun altitude
Rises 13:30:12 0° 232° (SW) 7,215 12.0 57.4°
Reaches altitude 10° 13:38:09 10° 215° (SW) 6,289 11.9 55.9°
Maximum altitude 13:50:03 18° 178° (S) 5,373 11.4 53.5°
Drops below altitude 10° 14:00:28 10° 141° (SE) 5,457 10.9 51.4°
Sets 14:06:26 0° 123° (ESE) 5,978 10.9 50.1°
